Location: Antin
(43.3330°N, 0.2804°E)
Time: 17:50:34
(UTC+00:00)

SME Rocket - Pass Details

Date: 14 December 2023
Orbit: 550 x 2645 km, 99.9° (Epoch: 20 February)

Event Time Altitude Azimuth Distance (km) Brightness Sun altitude
Rises 04:43:12 0° 26° (NNE) 6,089 8.4 -28.1°
Reaches altitude 10° 04:50:35 10° 52° (NE) 5,312 8.3 -26.8°
Maximum altitude 04:56:11 13° 75° (ENE) 5,121 8.5 -25.8°
Drops below altitude 10° 05:01:46 10° 99° (E) 5,337 8.9 -24.8°
Sets 05:09:00 0° 124° (SE) 6,151 9.2 -23.5°
